datetime,flow
1935-10-02,366.0
1935-10-03,284.0
1935-10-04,272.0
1935-10-05,242.0
1935-10-06,216.0
1935-10-07,272.0
1935-10-08,284.0
1935-10-09,272.0
1935-10-10,278.0
1935-10-11,284.0
1935-10-12,260.0
1935-10-13,248.0
1935-10-14,231.0
1935-10-15,248.0
1935-10-16,151.0
1935-10-17,168.0
1935-10-18,160.0
1935-10-19,236.0
1935-10-20,177.0
1935-10-21,196.0
1935-10-22,236.0
1935-10-23,390.0
1935-10-24,345.0
1935-10-25,414.0
1935-10-26,414.0
1935-10-27,414.0
1935-10-28,266.0
1935-10-29,382.0
1935-10-30,345.0
1935-10-31,338.0
1935-11-01,338.0
1935-11-02,284.0
1935-11-03,374.0
1935-11-04,502.0
1935-11-05,512.0
1935-11-06,438.0
1935-11-07,422.0
1935-11-08,422.0
1935-11-09,374.0
1935-11-10,331.0
1935-11-11,374.0
1935-11-12,398.0
1935-11-13,352.0
1935-11-14,324.0
1935-11-15,284.0
1935-11-16,350.0
1935-11-17,401.0
1935-11-18,381.0
1935-11-19,376.0
1935-11-20,376.0
1935-11-21,371.0
1935-11-22,371.0
1935-11-23,500.0
1935-11-24,473.0
1935-11-25,398.0
1935-11-26,229.0
1935-11-27,320.0
1935-11-28,304.0
1935-11-29,283.0
1935-11-30,289.0
1935-12-01,296.0
1935-12-02,276.0
1935-12-03,292.0
1935-12-04,323.0
1935-12-05,299.0
1935-12-06,306.0
1935-12-07,363.0
1935-12-08,350.0
1935-12-09,340.0
1935-12-10,338.0
1935-12-11,322.0
1935-12-12,310.0
1935-12-13,307.0
1935-12-14,328.0
1935-12-15,298.0
1935-12-16,250.0
1935-12-17,231.0
1935-12-18,272.0
1935-12-19,274.0
1935-12-20,295.0
1935-12-21,285.0
1935-12-22,307.0
1935-12-23,279.0
1935-12-24,256.0
1935-12-25,209.0
1935-12-26,140.0
1935-12-27,250.0
1935-12-28,236.0
1935-12-29,172.0
1935-12-30,128.0
1935-12-31,158.0
1936-01-01,181.0
1936-01-02,173.0
1936-01-03,175.0
1936-01-04,200.0
1936-01-05,171.0
1936-01-06,113.0
1936-01-07,158.0
1936-01-08,167.0
1936-01-09,177.0
1936-01-10,177.0
1936-01-11,195.0
1936-01-12,194.0
1936-01-13,195.0
1936-01-14,160.0
1936-01-15,189.0
1936-01-16,158.0
1936-01-17,215.0
1936-01-18,239.0
1936-01-19,289.0
1936-01-20,277.0
1936-01-21,314.0
1936-01-22,335.0
1936-01-23,326.0
1936-01-24,202.0
1936-01-25,243.0
1936-01-26,246.0
1936-01-27,211.0
1936-01-28,115.0
1936-01-29,107.0
1936-01-30,208.0
1936-01-31,258.0
1936-02-01,184.0
1936-02-02,185.0
1936-02-03,236.0
1936-02-04,225.0
1936-02-05,286.0
1936-02-06,181.0
1936-02-07,218.0
1936-02-08,235.0
1936-02-09,284.0
1936-02-10,258.0
1936-02-11,357.0
1936-02-12,365.0
1936-02-13,417.0
1936-02-14,400.0
1936-02-15,326.0
1936-02-16,302.0
1936-02-17,188.0
1936-02-18,226.0
1936-02-19,237.0
1936-02-20,211.0
1936-02-21,270.0
1936-02-22,173.0
1936-02-23,198.0
1936-02-24,154.0
1936-02-25,174.0
1936-02-26,131.0
1936-02-27,174.0
1936-02-28,178.0
1936-02-29,178.0
1936-03-01,152.0
1936-03-02,156.0
1936-03-03,224.0
1936-03-04,204.0
1936-03-05,193.0
1936-03-06,193.0
1936-03-07,193.0
1936-03-08,183.0
1936-03-09,165.0
1936-03-10,188.0
1936-03-11,188.0
1936-03-12,178.0
1936-03-13,160.0
1936-03-14,147.0
1936-03-15,107.0
1936-03-16,100.0
1936-03-17,92.0
1936-03-18,86.0
1936-03-19,72.0
1936-03-20,65.0
1936-03-21,83.0
1936-03-22,80.0
1936-03-23,51.0
1936-03-24,49.0
1936-03-25,72.0
1936-03-26,86.0
1936-03-27,63.0
1936-03-28,51.0
1936-03-29,35.0
1936-03-30,24.0
1936-03-31,22.0
1936-04-01,40.0
1936-04-02,103.0
1936-04-03,127.0
1936-04-04,114.0
1936-04-05,100.0
1936-04-06,94.0
1936-04-07,97.0
1936-04-08,75.0
1936-04-09,70.0
1936-04-10,58.0
1936-04-11,46.0
1936-04-12,21.0
1936-04-13,20.0
1936-04-14,56.0
1936-04-15,75.0
1936-04-16,94.0
1936-04-17,114.0
1936-04-18,214.0
1936-04-19,312.0
1936-04-20,470.0
1936-04-21,651.0
1936-04-22,651.0
1936-04-23,651.0
1936-04-24,750.0
1936-04-25,847.0
1936-04-26,799.0
1936-04-27,847.0
1936-04-28,896.0
1936-04-29,930.0
1936-04-30,965.0
1936-05-01,965.0
1936-05-02,880.0
1936-05-03,750.0
1936-05-04,707.0
1936-05-05,983.0
1936-05-06,1200.0
1936-05-07,1700.0
1936-05-08,1900.0
1936-05-09,1170.0
1936-05-10,679.0
1936-05-11,328.0
1936-05-12,722.0
1936-05-13,983.0
1936-05-14,1220.0
1936-05-15,1640.0
1936-05-16,1920.0
1936-05-17,2480.0
1936-05-18,2050.0
1936-05-19,2200.0
1936-05-20,1450.0
1936-05-21,1640.0
1936-05-22,1610.0
1936-05-23,2120.0
1936-05-24,5720.0
1936-05-25,2250.0
1936-05-26,1220.0
1936-05-27,1750.0
1936-05-28,2180.0
1936-05-29,1820.0
1936-05-30,1320.0
1936-05-31,1370.0
1936-06-01,1520.0
1936-06-02,1410.0
1936-06-03,1050.0
1936-06-04,1430.0
1936-06-05,3890.0
1936-06-06,965.0
1936-06-07,722.0
1936-06-08,557.0
1936-06-09,608.0
1936-06-10,1260.0
1936-06-11,1640.0
1936-06-12,4070.0
1936-06-13,1090.0
1936-06-14,1070.0
1936-06-15,1110.0
1936-06-16,1090.0
1936-06-17,1480.0
1936-06-18,1780.0
1936-06-19,1750.0
1936-06-20,2120.0
1936-06-21,1980.0
1936-06-22,1590.0
1936-06-23,1880.0
1936-06-24,2150.0
1936-06-25,2180.0
1936-06-26,2000.0
1936-06-27,2200.0
1936-06-28,2080.0
1936-06-29,2020.0
1936-06-30,1730.0
1936-07-01,1450.0
1936-07-02,1090.0
1936-07-03,983.0
1936-07-04,847.0
1936-07-05,736.0
1936-07-06,636.0
1936-07-07,557.0
1936-07-08,1260.0
1936-07-09,693.0
1936-07-10,736.0
1936-07-11,736.0
1936-07-12,693.0
1936-07-13,782.0
1936-07-14,847.0
1936-07-15,651.0
1936-07-16,544.0
1936-07-17,608.0
1936-07-18,595.0
1936-07-19,665.0
1936-07-20,815.0
1936-07-21,1240.0
1936-07-22,679.0
1936-07-23,622.0
1936-07-24,595.0
1936-07-25,459.0
1936-07-26,428.0
1936-07-27,965.0
1936-07-28,10100.0
1936-07-29,1040.0
1936-07-30,5570.0
1936-07-31,1820.0
1936-08-01,831.0
1936-08-02,2030.0
1936-08-03,2830.0
1936-08-04,4990.0
1936-08-05,6390.0
1936-08-06,12900.0
1936-08-07,14300.0
1936-08-08,7600.0
1936-08-09,4560.0
1936-08-10,3020.0
1936-08-11,2020.0
1936-08-12,1340.0
1936-08-13,1220.0
1936-08-14,1660.0
1936-08-15,1610.0
1936-08-16,1260.0
1936-08-17,1040.0
1936-08-18,679.0
1936-08-19,896.0
1936-08-20,1640.0
1936-08-21,2280.0
1936-08-22,1450.0
1936-08-23,1240.0
1936-08-24,1050.0
1936-08-25,636.0
1936-08-26,693.0
1936-08-27,544.0
1936-08-28,948.0
1936-08-29,863.0
1936-08-30,815.0
1936-08-31,983.0
1936-09-01,736.0
1936-09-02,863.0
1936-09-03,1070.0
1936-09-04,1300.0
1936-09-05,930.0
1936-09-06,707.0
1936-09-07,896.0
1936-09-08,608.0
1936-09-09,518.0
1936-09-10,407.0
1936-09-11,344.0
1936-09-12,397.0
1936-09-13,376.0
1936-09-14,386.0
1936-09-15,344.0
1936-09-16,304.0
1936-09-17,304.0
1936-09-18,276.0
1936-09-19,296.0
1936-09-20,328.0
1936-09-21,344.0
1936-09-22,276.0
1936-09-23,236.0
1936-09-24,224.0
1936-09-25,229.0
1936-09-26,193.0
1936-09-27,276.0
1936-09-28,531.0
1936-09-29,766.0
1936-09-30,570.0
1936-10-01,612.0
1936-10-02,648.0
1936-10-03,636.0
1936-10-04,612.0
1936-10-05,540.0
1936-10-06,600.0
1936-10-07,560.0
1936-10-08,437.0
1936-10-09,424.0
1936-10-10,387.0
1936-10-11,424.0
1936-10-12,486.0
1936-10-13,472.0
1936-10-14,444.0
1936-10-15,444.0
1936-10-16,437.0
1936-10-17,424.0
1936-10-18,412.0
1936-10-19,406.0
1936-10-20,406.0
1936-10-21,375.0
1936-10-22,430.0
1936-10-23,406.0
1936-10-24,381.0
1936-10-25,375.0
1936-10-26,418.0
1936-10-27,418.0
1936-10-28,375.0
1936-10-29,348.0
1936-10-30,375.0
1936-10-31,353.0
1936-11-01,358.0
1936-11-02,430.0
1936-11-03,530.0
1936-11-04,510.0
1936-11-05,493.0
1936-11-06,479.0
1936-11-07,486.0
1936-11-08,472.0
1936-11-09,510.0
1936-11-10,458.0
1936-11-11,444.0
1936-11-12,437.0
1936-11-13,437.0
1936-11-14,444.0
1936-11-15,472.0
1936-11-16,530.0
1936-11-17,479.0
1936-11-18,486.0
1936-11-19,430.0
1936-11-20,465.0
1936-11-21,520.0
1936-11-22,590.0
1936-11-23,612.0
1936-11-24,648.0
1936-11-25,510.0
1936-11-26,418.0
1936-11-27,412.0
1936-11-28,430.0
1936-11-29,293.0
1936-11-30,258.0
1936-12-01,293.0
1936-12-02,316.0
1936-12-03,387.0
1936-12-04,406.0
1936-12-05,458.0
1936-12-06,510.0
1936-12-07,479.0
1936-12-08,451.0
1936-12-09,444.0
1936-12-10,424.0
1936-12-11,400.0
1936-12-12,387.0
1936-12-13,406.0
1936-12-14,530.0
1936-12-15,444.0
1936-12-16,510.0
1936-12-17,486.0
1936-12-18,400.0
1936-12-19,307.0
1936-12-20,258.0
1936-12-21,224.0
1936-12-22,234.0
1936-12-23,266.0
1936-12-24,307.0
1936-12-25,358.0
1936-12-26,424.0
1936-12-27,500.0
1936-12-28,493.0
1936-12-29,451.0
1936-12-30,510.0
1936-12-31,510.0
1937-01-01,260.0
1937-01-02,320.0
1937-01-03,340.0
1937-01-04,380.0
1937-01-05,400.0
1937-01-06,250.0
1937-01-07,100.0
1937-01-08,90.0
1937-01-09,80.0
1937-01-10,50.0
1937-01-11,200.0
1937-01-12,180.0
1937-01-13,190.0
1937-01-14,210.0
1937-01-15,260.0
1937-01-16,350.0
1937-01-17,260.0
1937-01-18,260.0
1937-01-19,260.0
1937-01-20,260.0
1937-01-21,280.0
1937-01-22,270.0
1937-01-23,300.0
1937-01-24,300.0
1937-01-25,300.0
1937-01-26,290.0
1937-01-27,330.0
1937-01-28,330.0
1937-01-29,300.0
1937-01-30,350.0
1937-01-31,340.0
1937-02-01,370.0
1937-02-02,380.0
1937-02-03,335.0
1937-02-04,350.0
1937-02-05,400.0
1937-02-06,410.0
1937-02-07,400.0
1937-02-08,430.0
1937-02-09,465.0
1937-02-10,266.0
1937-02-11,242.0
1937-02-12,418.0
1937-02-13,486.0
1937-02-14,493.0
1937-02-15,590.0
1937-02-16,520.0
1937-02-17,486.0
1937-02-18,412.0
1937-02-19,364.0
1937-02-20,353.0
1937-02-21,279.0
1937-02-22,327.0
1937-02-23,224.0
1937-02-24,321.0
1937-02-25,307.0
1937-02-26,192.0
1937-02-27,87.0
1937-02-28,127.0
1937-03-01,178.0
1937-03-02,242.0
1937-03-03,332.0
1937-03-04,266.0
1937-03-05,238.0
1937-03-06,258.0
1937-03-07,275.0
1937-03-08,311.0
1937-03-09,342.0
1937-03-10,369.0
1937-03-11,332.0
1937-03-12,293.0
1937-03-13,284.0
1937-03-14,293.0
1937-03-15,327.0
1937-03-16,332.0
1937-03-17,279.0
1937-03-18,307.0
1937-03-19,358.0
1937-03-20,393.0
1937-03-21,298.0
1937-03-22,262.0
1937-03-23,316.0
1937-03-24,242.0
1937-03-25,250.0
1937-03-26,275.0
1937-03-27,288.0
1937-03-28,275.0
1937-03-29,284.0
1937-03-30,288.0
1937-03-31,275.0
1937-04-01,293.0
1937-04-02,275.0
1937-04-03,279.0
1937-04-04,270.0
1937-04-05,321.0
1937-04-06,311.0
1937-04-07,311.0
1937-04-08,307.0
1937-04-09,254.0
1937-04-10,224.0
1937-04-11,214.0
1937-04-12,201.0
1937-04-13,316.0
1937-04-14,332.0
1937-04-15,430.0
1937-04-16,510.0
1937-04-17,756.0
1937-04-18,879.0
1937-04-19,816.0
1937-04-20,744.0
1937-04-21,510.0
1937-04-22,458.0
1937-04-23,660.0
1937-04-24,590.0
1937-04-25,479.0
1937-04-26,437.0
1937-04-27,636.0
1937-04-28,387.0
1937-04-29,270.0
1937-04-30,298.0
1937-05-01,337.0
1937-05-02,220.0
1937-05-03,275.0
1937-05-04,486.0
1937-05-05,530.0
1937-05-06,424.0
1937-05-07,540.0
1937-05-08,570.0
1937-05-09,780.0
1937-05-10,840.0
1937-05-11,892.0
1937-05-12,892.0
1937-05-13,1060.0
1937-05-14,1170.0
1937-05-15,1260.0
1937-05-16,1620.0
1937-05-17,1990.0
1937-05-18,1730.0
1937-05-19,1840.0
1937-05-20,2030.0
1937-05-21,1780.0
1937-05-22,1600.0
1937-05-23,1690.0
1937-05-24,1860.0
1937-05-25,1650.0
1937-05-26,1380.0
1937-05-27,1190.0
1937-05-28,1140.0
1937-05-29,1140.0
1937-05-30,2280.0
1937-05-31,2050.0
1937-06-01,1070.0
1937-06-02,828.0
1937-06-03,1240.0
1937-06-04,418.0
1937-06-05,1090.0
1937-06-06,1070.0
1937-06-07,1110.0
1937-06-08,1190.0
1937-06-09,1120.0
1937-06-10,944.0
1937-06-11,648.0
1937-06-12,648.0
1937-06-13,624.0
1937-06-14,744.0
1937-06-15,828.0
1937-06-16,866.0
1937-06-17,792.0
1937-06-18,918.0
1937-06-19,1060.0
1937-06-20,1040.0
1937-06-21,970.0
1937-06-22,1020.0
1937-06-23,1210.0
1937-06-24,1260.0
1937-06-25,1220.0
1937-06-26,1630.0
1937-06-27,1730.0
1937-06-28,1290.0
1937-06-29,1330.0
1937-06-30,1140.0
1937-07-01,918.0
1937-07-02,1060.0
1937-07-03,1070.0
1937-07-04,1120.0
1937-07-05,1000.0
1937-07-06,879.0
1937-07-07,720.0
1937-07-08,732.0
1937-07-09,780.0
1937-07-10,756.0
1937-07-11,648.0
1937-07-12,612.0
1937-07-13,684.0
1937-07-14,600.0
1937-07-15,672.0
1937-07-16,560.0
1937-07-17,560.0
1937-07-18,1090.0
1937-07-19,465.0
1937-07-20,307.0
1937-07-21,307.0
1937-07-22,288.0
1937-07-23,227.0
1937-07-24,217.0
1937-07-25,230.0
1937-07-26,238.0
1937-07-27,369.0
1937-07-28,381.0
1937-07-29,530.0
1937-07-30,458.0
1937-07-31,720.0
1937-08-01,493.0
1937-08-02,400.0
1937-08-03,381.0
1937-08-04,381.0
1937-08-05,493.0
1937-08-06,254.0
1937-08-07,254.0
1937-08-08,262.0
1937-08-09,246.0
1937-08-10,224.0
1937-08-11,184.0
1937-08-12,181.0
1937-08-13,214.0
1937-08-14,254.0
1937-08-15,230.0
1937-08-16,173.0
1937-08-17,181.0
1937-08-18,165.0
1937-08-19,284.0
1937-08-20,293.0
1937-08-21,342.0
1937-08-22,270.0
1937-08-23,198.0
1937-08-24,195.0
1937-08-25,192.0
1937-08-26,184.0
1937-08-27,792.0
1937-08-28,792.0
1937-08-29,412.0
1937-08-30,3320.0
1937-08-31,2630.0
1937-09-01,1170.0
1937-09-02,648.0
1937-09-03,540.0
1937-09-04,560.0
1937-09-05,1820.0
1937-09-06,800.0
1937-09-07,861.0
1937-09-08,3360.0
1937-09-09,307.0
1937-09-10,486.0
1937-09-11,660.0
1937-09-12,540.0
1937-09-13,246.0
1937-09-14,181.0
1937-09-15,152.0
1937-09-16,160.0
1937-09-17,140.0
1937-09-18,143.0
1937-09-19,122.0
1937-09-20,97.0
1937-09-21,80.0
1937-09-22,85.0
1937-09-23,76.0
1937-09-24,73.0
1937-09-25,68.0
1937-09-26,82.0
1937-09-27,120.0
1937-09-28,138.0
1937-09-29,120.0
1937-09-30,100.0
1937-10-01,107.0
1937-10-02,103.0
1937-10-03,112.0
1937-10-04,107.0
1937-10-05,107.0
1937-10-06,100.0
1937-10-07,90.0
1937-10-08,57.0
1937-10-09,88.0
1937-10-10,88.0
1937-10-11,98.0
1937-10-12,134.0
1937-10-13,121.0
1937-10-14,162.0
1937-10-15,191.0
1937-10-16,184.0
1937-10-17,217.0
1937-10-18,209.0
1937-10-19,226.0
1937-10-20,220.0
1937-10-21,217.0
1937-10-22,207.0
1937-10-23,199.0
1937-10-24,169.0
1937-10-25,181.0
1937-10-26,189.0
1937-10-27,176.0
1937-10-28,199.0
1937-10-29,162.0
1937-10-30,149.0
1937-10-31,142.0
1937-11-01,149.0
1937-11-02,151.0
1937-11-03,189.0
1937-11-04,189.0
1937-11-05,184.0
1937-11-06,186.0
1937-11-07,181.0
1937-11-08,184.0
1937-11-09,181.0
1937-11-10,179.0
1937-11-11,189.0
1937-11-12,169.0
1937-11-13,179.0
1937-11-14,184.0
1937-11-15,174.0
1937-11-16,205.0
1937-11-17,220.0
1937-11-18,194.0
1937-11-19,196.0
1937-11-20,215.0
1937-11-21,236.0
1937-11-22,311.0
1937-11-23,394.0
1937-11-24,341.0
1937-11-25,337.0
1937-11-26,316.0
1937-11-27,316.0
1937-11-28,337.0
1937-11-29,303.0
1937-11-30,332.0
1937-12-01,289.0
1937-12-02,286.0
1937-12-03,283.0
1937-12-04,286.0
1937-12-05,263.0
1937-12-06,263.0
1937-12-07,266.0
1937-12-08,283.0
1937-12-09,311.0
1937-12-10,303.0
1937-12-11,394.0
1937-12-12,394.0
1937-12-13,269.0
1937-12-14,307.0
1937-12-15,405.0
1937-12-16,394.0
1937-12-17,266.0
1937-12-18,341.0
1937-12-19,337.0
1937-12-20,303.0
1937-12-21,254.0
1937-12-22,226.0
1937-12-23,251.0
1937-12-24,374.0
1937-12-25,370.0
1937-12-26,355.0
1937-12-27,355.0
1937-12-28,245.0
1937-12-29,226.0
1937-12-30,202.0
1937-12-31,260.0
1938-01-01,266.0
1938-01-02,272.0
1938-01-03,269.0
1938-01-04,328.0
1938-01-05,303.0
1938-01-06,328.0
1938-01-07,272.0
1938-01-08,260.0
1938-01-09,248.0
1938-01-10,296.0
1938-01-11,300.0
1938-01-12,311.0
1938-01-13,350.0
1938-01-14,360.0
1938-01-15,341.0
1938-01-16,307.0
1938-01-17,257.0
1938-01-18,263.0
1938-01-19,248.0
1938-01-20,289.0
1938-01-21,283.0
1938-01-22,276.0
1938-01-23,248.0
1938-01-24,245.0
1938-01-25,240.0
1938-01-26,245.0
1938-01-27,250.0
1938-01-28,263.0
1938-01-29,228.0
1938-01-30,220.0
1938-01-31,316.0
1938-02-01,337.0
1938-02-02,384.0
1938-02-03,324.0
1938-02-04,300.0
1938-02-05,286.0
1938-02-06,283.0
1938-02-07,263.0
1938-02-08,257.0
1938-02-09,236.0
1938-02-10,254.0
1938-02-11,242.0
1938-02-12,223.0
1938-02-13,217.0
1938-02-14,215.0
1938-02-15,212.0
1938-02-16,220.0
1938-02-17,251.0
1938-02-18,242.0
1938-02-19,226.0
1938-02-20,220.0
1938-02-21,248.0
1938-02-22,365.0
1938-02-23,296.0
1938-02-24,296.0
1938-02-25,283.0
1938-02-26,289.0
1938-02-27,266.0
1938-02-28,263.0
1938-03-01,293.0
1938-03-02,289.0
1938-03-03,286.0
1938-03-04,279.0
1938-03-05,289.0
1938-03-06,269.0
1938-03-07,248.0
1938-03-08,217.0
1938-03-09,245.0
1938-03-10,217.0
1938-03-11,215.0
1938-03-12,272.0
1938-03-13,239.0
1938-03-14,228.0
1938-03-15,296.0
1938-03-16,296.0
1938-03-17,279.0
1938-03-18,245.0
1938-03-19,239.0
1938-03-20,242.0
1938-03-21,204.0
1938-03-22,194.0
1938-03-23,204.0
1938-03-24,228.0
1938-03-25,207.0
1938-03-26,202.0
1938-03-27,181.0
1938-03-28,209.0
1938-03-29,223.0
1938-03-30,236.0
1938-03-31,251.0
1938-04-01,245.0
1938-04-02,234.0
1938-04-03,242.0
1938-04-04,220.0
1938-04-05,228.0
1938-04-06,212.0
1938-04-07,234.0
1938-04-08,239.0
1938-04-09,226.0
1938-04-10,212.0
1938-04-11,179.0
1938-04-12,184.0
1938-04-13,151.0
1938-04-14,142.0
1938-04-15,181.0
1938-04-16,303.0
1938-04-17,293.0
1938-04-18,263.0
1938-04-19,242.0
1938-04-20,266.0
1938-04-21,328.0
1938-04-22,332.0
1938-04-23,286.0
1938-04-24,283.0
1938-04-25,341.0
1938-04-26,374.0
1938-04-27,2150.0
1938-04-28,837.0
1938-04-29,601.0
1938-04-30,556.0
1938-05-01,520.0
1938-05-02,621.0
1938-05-03,676.0
1938-05-04,882.0
1938-05-05,772.0
1938-05-06,946.0
1938-05-07,882.0
1938-05-08,824.0
1938-05-09,746.0
1938-05-10,914.0
1938-05-11,1050.0
1938-05-12,898.0
1938-05-13,1140.0
1938-05-14,1030.0
1938-05-15,978.0
1938-05-16,1440.0
1938-05-17,1560.0
1938-05-18,1840.0
1938-05-19,1820.0
1938-05-20,1500.0
1938-05-21,1500.0
1938-05-22,1520.0
1938-05-23,866.0
1938-05-24,1160.0
1938-05-25,1050.0
1938-05-26,914.0
1938-05-27,837.0
1938-05-28,962.0
1938-05-29,1460.0
1938-05-30,1980.0
1938-05-31,1620.0
1938-06-01,1690.0
1938-06-02,1600.0
1938-06-03,1640.0
1938-06-04,1910.0
1938-06-05,2150.0
1938-06-06,2350.0
1938-06-07,2850.0
1938-06-08,3990.0
1938-06-09,1670.0
1938-06-10,2220.0
1938-06-11,2200.0
1938-06-12,1750.0
1938-06-13,1710.0
1938-06-14,1800.0
1938-06-15,1730.0
1938-06-16,1400.0
1938-06-17,1260.0
1938-06-18,1820.0
1938-06-19,1580.0
1938-06-20,2100.0
1938-06-21,1400.0
1938-06-22,1560.0
1938-06-23,2030.0
1938-06-24,1870.0
1938-06-25,1460.0
1938-06-26,2400.0
1938-06-27,1730.0
1938-06-28,2030.0
1938-06-29,1750.0
1938-06-30,2080.0
1938-07-01,2120.0
1938-07-02,1690.0
1938-07-03,1710.0
1938-07-04,1910.0
1938-07-05,1620.0
1938-07-06,1340.0
1938-07-07,1220.0
1938-07-08,1140.0
1938-07-09,914.0
1938-07-10,962.0
1938-07-11,962.0
1938-07-12,882.0
1938-07-13,759.0
1938-07-14,914.0
1938-07-15,2180.0
1938-07-16,2380.0
1938-07-17,1840.0
1938-07-18,1600.0
1938-07-19,2320.0
1938-07-20,1730.0
1938-07-21,962.0
1938-07-22,1010.0
1938-07-23,811.0
1938-07-24,798.0
1938-07-25,759.0
1938-07-26,632.0
1938-07-27,798.0
1938-07-28,538.0
1938-07-29,898.0
1938-07-30,643.0
1938-07-31,520.0
1938-08-01,485.0
1938-08-02,405.0
1938-08-03,374.0
1938-08-04,632.0
1938-08-05,547.0
1938-08-06,422.0
1938-08-07,416.0
1938-08-08,379.0
1938-08-09,405.0
1938-08-10,389.0
1938-08-11,3290.0
1938-08-12,898.0
1938-08-13,759.0
1938-08-14,587.0
1938-08-15,520.0
1938-08-16,492.0
1938-08-17,416.0
1938-08-18,394.0
1938-08-19,300.0
1938-08-20,242.0
1938-08-21,149.0
1938-08-22,158.0
1938-08-23,136.0
1938-08-24,151.0
1938-08-25,138.0
1938-08-26,3460.0
1938-08-27,866.0
1938-08-28,538.0
1938-08-29,914.0
1938-08-30,882.0
1938-08-31,665.0
1938-09-01,1140.0
1938-09-02,2120.0
1938-09-03,3510.0
1938-09-04,6150.0
1938-09-05,2100.0
1938-09-06,1360.0
1938-09-07,1560.0
1938-09-08,1200.0
1938-09-09,898.0
1938-09-10,772.0
1938-09-11,1140.0
1938-09-12,1580.0
1938-09-13,3940.0
1938-09-14,1260.0
1938-09-15,1180.0
1938-09-16,1160.0
1938-09-17,1200.0
1938-09-18,709.0
1938-09-19,978.0
1938-09-20,866.0
1938-09-21,824.0
1938-09-22,746.0
1938-09-23,709.0
1938-09-24,643.0
1938-09-25,643.0
1938-09-26,643.0
1938-09-27,574.0
1938-09-28,520.0
1938-09-29,485.0
1938-09-30,485.0
1938-10-01,565.0
1938-10-02,529.0
1938-10-03,394.0
1938-10-04,311.0
1938-10-05,311.0
1938-10-06,316.0
1938-10-07,300.0
1938-10-08,365.0
1938-10-09,914.0
1938-10-10,798.0
1938-10-11,733.0
1938-10-12,610.0
1938-10-13,485.0
1938-10-14,464.0
1938-10-15,428.0
1938-10-16,464.0
1938-10-17,422.0
1938-10-18,450.0
1938-10-19,464.0
1938-10-20,471.0
1938-10-21,450.0
1938-10-22,433.0
1938-10-23,411.0
1938-10-24,411.0
1938-10-25,439.0
1938-10-26,478.0
1938-10-27,492.0
1938-10-28,444.0
1938-10-29,416.0
1938-10-30,411.0
1938-10-31,422.0
1938-11-01,416.0
1938-11-02,389.0
1938-11-03,374.0
1938-11-04,405.0
1938-11-05,389.0
1938-11-06,583.0
1938-11-07,506.0
1938-11-08,471.0
1938-11-09,632.0
1938-11-10,733.0
1938-11-11,592.0
1938-11-12,621.0
1938-11-13,632.0
1938-11-14,654.0
1938-11-15,687.0
1938-11-16,565.0
1938-11-17,621.0
1938-11-18,643.0
1938-11-19,676.0
1938-11-20,698.0
1938-11-21,746.0
1938-11-22,824.0
1938-11-23,824.0
1938-11-24,574.0
1938-11-25,500.0
1938-11-26,419.0
1938-11-27,415.0
1938-11-28,350.0
1938-11-29,345.0
1938-11-30,303.0
1938-12-01,242.0
1938-12-02,286.0
1938-12-03,416.0
1938-12-04,283.0
1938-12-05,220.0
1938-12-06,257.0
1938-12-07,251.0
1938-12-08,236.0
1938-12-09,226.0
1938-12-10,202.0
1938-12-11,199.0
1938-12-12,239.0
1938-12-13,220.0
1938-12-14,153.0
1938-12-15,204.0
1938-12-16,181.0
1938-12-17,184.0
1938-12-18,185.0
1938-12-19,190.0
1938-12-20,160.0
1938-12-21,145.0
1938-12-22,136.0
1938-12-23,136.0
1938-12-24,132.0
1938-12-25,121.0
1938-12-26,121.0
1938-12-27,181.0
1938-12-28,169.0
1938-12-29,263.0
1938-12-30,212.0
1938-12-31,289.0
1939-01-01,169.0
1939-01-02,140.0
1939-01-03,120.0
1939-01-04,100.0
1939-01-05,52.0
1939-01-06,151.0
1939-01-07,169.0
1939-01-08,217.0
1939-01-09,332.0
1939-01-10,279.0
1939-01-11,228.0
1939-01-12,248.0
1939-01-13,266.0
1939-01-14,155.0
1939-01-15,155.0
1939-01-16,100.0
1939-01-17,75.0
1939-01-18,40.0
1939-01-19,30.0
1939-01-20,40.0
1939-01-21,65.0
1939-01-22,80.0
1939-01-23,212.0
1939-01-24,212.0
1939-01-25,194.0
1939-01-26,162.0
1939-01-27,169.0
1939-01-28,167.0
1939-01-29,220.0
1939-01-30,254.0
1939-01-31,191.0
1939-02-01,186.0
1939-02-02,184.0
1939-02-03,212.0
1939-02-04,181.0
1939-02-05,212.0
1939-02-06,234.0
1939-02-07,257.0
1939-02-08,226.0
1939-02-09,200.0
1939-02-10,200.0
1939-02-11,190.0
1939-02-12,179.0
1939-02-13,170.0
1939-02-14,150.0
1939-02-15,60.0
1939-02-16,240.0
1939-02-17,428.0
1939-02-18,440.0
1939-02-19,500.0
1939-02-20,270.0
1939-02-21,60.0
1939-02-22,40.0
1939-02-23,45.0
1939-02-24,65.0
1939-02-25,75.0
1939-02-26,70.0
1939-02-27,60.0
1939-02-28,80.0
1939-03-01,110.0
1939-03-02,184.0
1939-03-03,186.0
1939-03-04,151.0
1939-03-05,153.0
1939-03-06,60.0
1939-03-07,50.0
1939-03-08,60.0
1939-03-09,70.0
1939-03-10,200.0
1939-03-11,250.0
1939-03-12,200.0
1939-03-13,100.0
1939-03-14,248.0
1939-03-15,457.0
1939-03-16,513.0
1939-03-17,428.0
1939-03-18,360.0
1939-03-19,303.0
1939-03-20,303.0
1939-03-21,324.0
1939-03-22,389.0
1939-03-23,478.0
1939-03-24,538.0
1939-03-25,601.0
1939-03-26,485.0
1939-03-27,428.0
1939-03-28,574.0
1939-03-29,478.0
1939-03-30,450.0
1939-03-31,471.0
1939-04-01,464.0
1939-04-02,384.0
1939-04-03,341.0
1939-04-04,320.0
1939-04-05,324.0
1939-04-06,360.0
1939-04-07,433.0
1939-04-08,450.0
1939-04-09,360.0
1939-04-10,360.0
1939-04-11,279.0
1939-04-12,276.0
1939-04-13,248.0
1939-04-14,248.0
1939-04-15,316.0
1939-04-16,687.0
1939-04-17,547.0
1939-04-18,506.0
1939-04-19,416.0
1939-04-20,379.0
1939-04-21,365.0
1939-04-22,345.0
1939-04-23,350.0
1939-04-24,316.0
1939-04-25,279.0
1939-04-26,389.0
1939-04-27,405.0
1939-04-28,471.0
1939-04-29,574.0
1939-04-30,538.0
1939-05-01,506.0
1939-05-02,520.0
1939-05-03,676.0
1939-05-04,798.0
1939-05-05,772.0
1939-05-06,709.0
1939-05-07,882.0
1939-05-08,914.0
1939-05-09,811.0
1939-05-10,610.0
1939-05-11,654.0
1939-05-12,798.0
1939-05-13,978.0
1939-05-14,1050.0
1939-05-15,962.0
1939-05-16,1100.0
1939-05-17,1540.0
1939-05-18,1500.0
1939-05-19,1600.0
1939-05-20,1840.0
1939-05-21,2080.0
1939-05-22,2280.0
1939-05-23,1890.0
1939-05-24,1690.0
1939-05-25,1770.0
1939-05-26,2550.0
1939-05-27,1180.0
1939-05-28,994.0
1939-05-29,994.0
1939-05-30,1220.0
1939-05-31,1580.0
1939-06-01,1690.0
1939-06-02,1460.0
1939-06-03,1280.0
1939-06-04,1220.0
1939-06-05,1120.0
1939-06-06,1340.0
1939-06-07,1520.0
1939-06-08,1220.0
1939-06-09,1260.0
1939-06-10,914.0
1939-06-11,746.0
1939-06-12,698.0
1939-06-13,798.0
1939-06-14,811.0
1939-06-15,898.0
1939-06-16,1100.0
1939-06-17,1120.0
1939-06-18,978.0
1939-06-19,811.0
1939-06-20,632.0
1939-06-21,687.0
1939-06-22,520.0
1939-06-23,471.0
1939-06-24,471.0
1939-06-25,574.0
1939-06-26,654.0
1939-06-27,621.0
1939-06-28,478.0
1939-06-29,583.0
1939-06-30,643.0
1939-07-01,538.0
1939-07-02,457.0
1939-07-03,547.0
1939-07-04,478.0
1939-07-05,464.0
1939-07-06,374.0
1939-07-07,300.0
1939-07-08,332.0
1939-07-09,350.0
1939-07-10,269.0
1939-07-11,248.0
1939-07-12,194.0
1939-07-13,228.0
1939-07-14,199.0
1939-07-15,189.0
1939-07-16,209.0
1939-07-17,389.0
1939-07-18,389.0
1939-07-19,286.0
1939-07-20,286.0
1939-07-21,365.0
1939-07-22,324.0
1939-07-23,263.0
1939-07-24,248.0
1939-07-25,184.0
1939-07-26,164.0
1939-07-27,144.0
1939-07-28,167.0
1939-07-29,162.0
1939-07-30,245.0
1939-07-31,547.0
1939-08-01,457.0